Regional Weather Roundup
Issued by NWS

Home | Current Version | Previous Version | Graphics & Text | Print | Product List | Glossary On
Versions: 1 2 3 4 5 6 7 8 9 10 11 12 13 14 15 16 17 18 19 20 21 22 23 24 25 26 27 28 29 30 31 32 33 34 35 36 37 38 39 40 41 42 43 44 45 46 47 48 49 50
000
ASUS43 KMKX 300521
RWRWI

WISCONSIN REGIONAL WEATHER ROUNDUP
NATIONAL WEATHER SERVICE MILWAUKEE/SULLIVAN WI
1200 AM CDT THU JUL 30 2015

NOTE: "FAIR" INDICATES FEW OR NO CLOUDS BELOW 12,000 FEET WITH NO
SIGNIFICANT WEATHER AND/OR OBSTRUCTIONS TO VISIBILITY.

WIZ001-002-006>008-014>016-023>028-300600-
NORTHWEST WISCONSIN

CITY           SKY/WX    TMP DP  RH WIND       PRES   REMARKS
SUPERIOR ARPT  CLEAR     65  55  71 SW8       29.86R
ASHLAND        CLEAR     67  53  61 W8        29.85R
HAYWARD        CLEAR     69  52  54 VRB7      29.92R
SIREN          PTCLDY    68  53  58 W9        29.94R
CUMBERLAND     CLEAR     63  54  72 W8        29.96R
RICE LAKE      CLEAR     65  55  69 SW7       29.97R
CHETEK         CLEAR     67  56  68 SW5       29.95S
LADYSMITH      CLEAR     67  55  65 SW7       29.95S
EAU CLAIRE     CLEAR     65  55  70 MISG      29.96R
MENOMONIE      CLEAR     69  55  62 W7        29.98R
NEW RICHMOND   PTCLDY    66  55  66 W7        29.98R
OSCEOLA        CLEAR     68  56  64 W8        29.99S
$$

WIZ003>005-009-010-017-018-300600-
NORTH CENTRAL WISCONSIN

CITY           SKY/WX    TMP DP  RH WIND       PRES   REMARKS
MANITOWISH WTR CLEAR     63  55  75 W6        29.89R
ARBOR VITAE    PTCLDY    67  55  65 W7        29.90R
WOODRUFF       PTCLDY    67  55  65 W7        29.90R
RHINELANDER    CLEAR     65  53  65 W10       29.92R
EAGLE RIVER    CLEAR     66  52  60 W10       29.88S
LAND O LAKES   CLEAR     68  52  57 W8        29.87S
PHILLIPS       PTCLDY    65  55  70 SW8       29.92R
TOMAHAWK       CLEAR     65  53  65 W6        29.93R
MEDFORD        CLEAR     65  56  70 W9        29.95R
MERRILL        NOT AVBL
$$

WIZ029-030-035-036-043>047-300600-
CENTRAL WISCONSIN

CITY           SKY/WX    TMP DP  RH WIND       PRES   REMARKS
WAUSAU         PTCLDY    71  54  54 W13       29.92S
MOSINEE        CLEAR     64  55  72 SW10      29.96R
MARSHFIELD     CLEAR     67  53  61 W9        29.96S
STEVENS POINT  CLEAR     67  53  60 W9        29.96R
WAUPACA        CLEAR     67  55  66 SW5       29.95R
WAUTOMA        CLEAR     67  54  63 SW6       29.97S
WISC RAPIDS    CLEAR     67  53  61 W7        29.97S
CAMP DOUGLAS   CLEAR     68  55  64 W13       29.99R
$$

WIZ011>013-019>022-031-037>040-048>050-300600-
NORTHEAST WISCONSIN

CITY           SKY/WX    TMP DP  RH WIND       PRES   REMARKS
ANTIGO         CLEAR     65  55  68 W10G16    29.93R
SHAWANO        CLEAR     70  55  59 SW6       29.91S
OCONTO         CLEAR     69  56  62 SW7       29.88S
STURGEON BAY   CLEAR     72  54  53 W12       29.90S
GREEN BAY      CLEAR     70  55  59 SW9       29.91S
MANITOWOC      CLEAR     68  56  65 MISG      29.93S
APPLETON       CLEAR     68  52  56 W9        29.94S
CLINTONVILLE   CLEAR     68  54  60 SW7       29.92R
OSHKOSH        CLEAR     70  53  54 SW5       29.95S
$$

WIZ032>034-041-042-053>061-300600-
SOUTHWEST WISCONSIN

CITY           SKY/WX    TMP DP  RH WIND       PRES   REMARKS
LA CROSSE      CLEAR     74  55  51 W13       30.00R
SPARTA         CLEAR     64  54  68 SW3       30.01R
VIROQUA        CLEAR     64  57  79 SW7       30.04R
BOSCOBEL       CLEAR     62  59  90 W3        30.04R
PRAIRIE DU CHI CLEAR     68  56  66 NW3       30.04R
PLATTEVILLE    CLEAR     64  60  86 SW8       30.06R
$$

WIZ056-057-062-063-064-067-068-300600-
SOUTH CENTRAL WISCONSIN

CITY           SKY/WX    TMP DP  RH WIND       PRES   REMARKS
REEDSBURG      CLEAR     68  56  64 W6        30.00S
BARABOO/DELLS  CLEAR     69  52  54 W7        30.01R
LONE ROCK      CLEAR     59  54  83 CALM      30.03R
MINERAL POINT  CLEAR     64  55  72 W5        30.05S
MADISON        CLEAR     71  54  54 CALM      30.01R
MIDDLETON      CLEAR     69  53  56 W9        30.02S
WATERTOWN      CLEAR     66  56  70 SW6       30.00S
MONROE         CLEAR     68  55  64 SW13      30.05R
JANESVILLE     CLEAR     66  54  63 W6        30.02S
$$

WIZ051-052-058>065-066-070>072-300600-
SOUTHEAST WISCONSIN

CITY           SKY/WX    TMP DP  RH WIND       PRES   REMARKS
MILWAUKEE      CLEAR     73  53  49 W8        29.99R
WAUKESHA       CLEAR     66  52  59 W5        30.01R
MILWAUKEE/TIMM CLEAR     70  50  49 W8        30.00R
RACINE         CLEAR     71  53  52 W8        30.01R
BURLINGTON     CLEAR     62  54  76 SW5       30.01S
KENOSHA        CLEAR     64  55  72 W6        30.01R
FOND DU LAC    CLEAR     67  54  63 SW6       29.97R
SHEBOYGAN      CLEAR     64  55  72 SW6       29.95S
WEST BEND      CLEAR     70  52  52 SW7       29.98S
JUNEAU         CLEAR     63  55  75 SW6       30.00S
$$

LSZ147-162-300600-
LAKE SUPERIOR

STATION/POSITION TIME  TEMP    WIND        PRES    WAVE
                       AIR SEA DIR/SP/G            HT/PER
                 (UTC) (F)     (DEG/KT/KT) (MB)    (FT/S)
W MID LAKE BUOY  0450   62 55  270/ 17/ 21 1007.0R   3/ 5
DEVILS ISLAND    0500   67     240/ 21/ 24 1009.2R
PORT WING        0400   72     230/ 10/ 15 1010.2S
SAXON HARBOR     0440   72                 1010.2R
$$

LMZ867-665-643>646-300600-
LAKE MICHIGAN

STATION/POSITION TIME  TEMP    WIND        PRES    WAVE
                       AIR SEA DIR/SP/G            HT/PER
                 (UTC) (F)     (DEG/KT/KT) (MB)    (FT/S)
CHAMBERS ISLAND  0400   73     210/  6/ 12 1010.8S
S GREEN BAY BUOY 0500   71 71  230/ 14/ 16 1013.4S
N MID LAKE BUOY  0450   73 70  220/ 14/ 17 1009.5F   2/ 4
NORTHPORT PIER   0400   75     240/  3/  8 1010.5F
SISTER BAY       0414   75     260/ 15/ 18   N/A
ALGOMA LAKESHORE 0442          240/  4/  5   N/A
KEWAUNEE LAKESHO 0300   74                   N/A
SHEBOYGAN LAKESH 0500   71     240/ 10/ 11 1013.9F
PORT WASHINGTON  0400   72     260/  4/  6 1015.2R
ATWATER BUOY     0500   71     250/  8/ 10 1016.5R
MILWAUKEE LAKESH 0500   75     260/  8/ 11   N/A
KENOSHA   LAKESH 0500   73     270/  9/ 11 1015.6R
$$

TC  - TEMPERATURE IN CELSIUS
VSB - VISIBILITY IN STATUTE MILES
WCI - WIND CHILL INDEX
HX  - HEAT INDEX




USA.gov is the U.S. government's official web portal to all federal, state and local government web resources and services.